Location: Newark
(11.6000°N, 43.1667°E)
Time: 19:36:34
(UTC+00:00)

LightSail 2 - Pass Details

Date: 22 September 2019
Orbit: 707 x 722 km, 24.0° (Epoch: 16 October)

Event Time Altitude Azimuth Distance (km) Brightness Sun altitude
Exits shadow 00:30:49 19° 47° (NE) 1,625 7.4 -36.4°
Drops below altitude 10° 00:32:23 10° 55° (NE) 2,158 8.3 -36.0°
Sets 00:34:54 0° 61° (ENE) 3,077 9.3 -35.4°
